"Pseudo-MPEC" for P10OPCx

Created 2019 Jun 15 19:08:29 UT using Find_Orb

Click here for an explanation of pseudo-MPECs

 
 Astrometry: 
     P10OPCx  C2019 06 08?B=ZW4pPG+Q;vKB'u/AstrometryG8n;qr_q?D:32redacted;Y/F51
     P10OPCx  C2019 06 08Onfcqe#HysIZHclick2'`Zw1R6(K[v9m0HBX5`v,Kherey.QS[T3F51
     P10OPCx  C2019 06 08)goCGF/T\7Y=hr0xA-00m,p+$o8_$LBkuelAtF#fZforu.R+`M8pF51
     P10OPCx  C2019 06 087+-#aeM$QFBUf4v:5SZoexplanation(B!4()R@f.(ipGJLG*Li_F51

Station data:
(F51) Pan-STARRS 1, Haleakala  (N20.707235 W156.255910)  US/Hawaii.
   Observers N. Primak, A. Schultz, S. Watters, J. Thiel, T. Goggia. Measurer
   PS1 Science Consortium. 1.8-m Ritchey-Chrétien + CCD.

Orbital elements:  P10OPCx
   Perihelion 2019 Sep 26.596960 +/- 204 TT = 14:19:37 (JD 2458753.096960)
Epoch 2019 Jun  8.0 TT = JDT 2458642.5   Earth MOID: 0.3550   Ma: 0.0281
M 317.45322539 +/- 60               (J2000 ecliptic)          AutoNEOCP
n   0.38470112 +/- 0.269            Peri.  195.14810 +/- 90
a   1.87235019 +/- 0.873            Node   123.28679 +/- 52
e   0.2720636 +/- 0.281             Incl.   25.47973 +/- 21
P   2.56/935.77d           H 21.0   G  0.15   U 11.9  SR
q 1.36295169 +/- 0.848    Q 2.38174869 +/- 58.2
From 4 observations 2019 June 8 (49.4 min); mean residual 0".13
Residuals in arcseconds: 
190608 F51  .06-  .04+    190608 F51  .11+  .27-    
190608 F51  .03+  .07+    190608 F51  .08-  .16+    

Ephemerides (geocentric):
Date (UTC) HH   RA              Dec         delta   r     elong  mag " sig PA
---- -- -- --  -------------   -----------  ------ ------ -----  --- ---- ---
2019 06 15 19  16 26 32.187   +25 42 49.27  .70833 1.5573 128.3 22.5 5893  69
2019 06 15 20  16 26 29.041   +25 42 02.34  .70822 1.5572 128.3 22.5 6307  71
2019 06 15 21  16 26 25.897   +25 41 15.31  .70811 1.5571 128.3 22.5 6781  72
2019 06 15 22  16 26 22.754   +25 40 28.19  .70800 1.5569 128.3 22.5 7325  73
2019 06 15 23  16 26 19.614   +25 39 40.97  .70789 1.5568 128.3 22.5 7953  74
2019 06 16 00  16 26 16.475   +25 38 53.66  .70778 1.5567 128.3 22.5 8685  75
2019 06 16 01  16 26 13.338   +25 38 06.25  .70767 1.5565 128.3 22.5 9544  76
2019 06 16 02  16 26 10.203   +25 37 18.74  .70756 1.5564 128.2 22.5 176'  77
2019 06 16 03  16 26 07.069   +25 36 31.15  .70745 1.5563 128.2 22.5 196'  77
2019 06 16 04  16 26 03.938   +25 35 43.45  .70734 1.5561 128.2 22.5 221'  78
2019 06 16 05  16 26 00.808   +25 34 55.66  .70724 1.5560 128.2 22.5 251'  78
2019 06 16 06  16 25 57.681   +25 34 07.77  .70713 1.5559 128.2 22.5 287'  79
2019 06 16 07  16 25 54.555   +25 33 19.79  .70702 1.5557 128.2 22.5 332'  79
2019 06 16 08  16 25 51.431   +25 32 31.72  .70691 1.5556 128.2 22.5 385'  79
2019 06 16 09  16 25 48.309   +25 31 43.54  .70680 1.5555 128.2 22.5 448'  78
2019 06 16 10  16 25 45.189   +25 30 55.28  .70669 1.5553 128.2 22.5 517'  77
2019 06 16 11  16 25 42.070   +25 30 06.91  .70658 1.5552 128.2 22.5 592'  73
2019 06 16 12  16 25 38.954   +25 29 18.46  .70648 1.5551 128.2 22.5 687'  64
2019 06 16 13  16 25 35.840   +25 28 29.90  .70637 1.5549 128.2 22.5 857'  48
2019 06 16 14  16 25 32.727   +25 27 41.26  .70626 1.5548 128.2 22.5 989'  38
2019 06 16 15  16 25 29.617   +25 26 52.51  .70615 1.5547 128.2 22.5  17d  34
2019 06 16 16  16 25 26.508   +25 26 03.67  .70605 1.5545 128.1 22.5  17d  31
2019 06 16 17  16 25 23.402   +25 25 14.74  .70594 1.5544 128.1 22.5  18d  30
2019 06 16 18  16 25 20.297   +25 24 25.71  .70583 1.5542 128.1 22.5  18d  28
2019 06 16 19  16 25 17.194   +25 23 36.59  .70573 1.5541 128.1 22.5  18d  27
2019 06 16 20  16 25 14.094   +25 22 47.37  .70562 1.5540 128.1 22.5  18d  26
2019 06 16 21  16 25 10.995   +25 21 58.06  .70552 1.5538 128.1 22.5  18d  26
2019 06 16 22  16 25 07.898   +25 21 08.65  .70541 1.5537 128.1 22.5  18d  25
2019 06 16 23  16 25 04.804   +25 20 19.14  .70530 1.5536 128.1 22.5  18d  24
2019 06 17 00  16 25 01.711   +25 19 29.55  .70520 1.5534 128.1 22.5  18d  24
2019 06 17 01  16 24 58.621   +25 18 39.85  .70509 1.5533 128.1 22.5  18d  23
2019 06 17 02  16 24 55.532   +25 17 50.06  .70499 1.5532 128.1 22.5  18d  23
2019 06 17 03  16 24 52.446   +25 17 00.18  .70488 1.5530 128.1 22.5  17d  23
2019 06 17 04  16 24 49.361   +25 16 10.20  .70478 1.5529 128.1 22.5  17d  22
2019 06 17 05  16 24 46.279   +25 15 20.13  .70467 1.5528 128.1 22.5  17d  22
2019 06 17 06  16 24 43.199   +25 14 29.96  .70457 1.5526 128.0 22.5  17d  22
2019 06 17 07  16 24 40.121   +25 13 39.70  .70447 1.5525 128.0 22.5  18d 158
2019 06 17 08  16 24 37.045   +25 12 49.35  .70436 1.5524 128.0 22.5  18d 158
2019 06 17 09  16 24 33.971   +25 11 58.89  .70426 1.5522 128.0 22.5  17d 159
2019 06 17 10  16 24 30.899   +25 11 08.35  .70415 1.5521 128.0 22.5  17d 159
2019 06 17 11  16 24 27.829   +25 10 17.71  .70405 1.5520 128.0 22.5  17d 159
2019 06 17 12  16 24 24.761   +25 09 26.97  .70395 1.5518 128.0 22.5  17d 159
2019 06 17 13  16 24 21.696   +25 08 36.14  .70384 1.5517 128.0 22.5  17d 159
2019 06 17 14  16 24 18.632   +25 07 45.22  .70374 1.5516 128.0 22.5  17d 159
2019 06 17 15  16 24 15.571   +25 06 54.20  .70364 1.5514 128.0 22.5  17d 159
2019 06 17 16  16 24 12.512   +25 06 03.09  .70354 1.5513 128.0 22.5  17d 159
2019 06 17 17  16 24 09.455   +25 05 11.88  .70344 1.5512 128.0 22.5  17d 159
2019 06 17 18  16 24 06.401   +25 04 20.58  .70333 1.5510 128.0 22.5  17d 160